Location: Natural Bridges National Monument
(37.6093°N, 109.9767°W)
Time: 06:25:05
(UTC-07:00)

Amateur Radio Satellites - All Passes

Search period start: 06 February 2016 05:55
Search period end: 07 February 2016 05:55
Location: Natural Bridges National Monument, 37.6093°N, 109.9767°W

Satellite Date Start Highest point End Downlink Frequencies (MHz)
Time Altitude Azimuth
CUTE-I 06 Feb 05:58:26 06:03:09 30° 97° (E) 06:07:51 437.470
PHONESAT 2.4 06 Feb 06:01:13 06:04:26 54° 8° (N) 06:07:39 2401.200-2431.200
LilacSat-2 06 Feb 06:02:02 06:05:07 24° 96° (E) 06:08:12 437.200
STRAND 1 06 Feb 06:09:01 06:13:43 39° 70° (ENE) 06:18:27 437.568
Cosmos 2504 06 Feb 06:10:33 06:18:54 68° 280° (W) 06:27:44 435.465 / 435.565
Cubesat XI-IV 06 Feb 06:10:33 06:15:36 40° 98° (E) 06:20:37 437.490
AO-7 06 Feb 06:18:06 06:23:53 21° 306° (NW) 06:29:40 29.400- 29.500
AIST 2 06 Feb 06:24:28 06:27:28 20° 249° (WSW) 06:30:27 435.215
GOMX 1 06 Feb 06:28:15 06:30:09 12° 90° (E) 06:31:59 467.674
BRITE-PL 06 Feb 06:36:49 06:41:18 36° 96° (E) 06:45:25 437.365/2234.400
SO-50 06 Feb 06:57:22 07:01:48 33° 308° (NW) 07:06:18 436.795
HO-68 06 Feb 07:18:41 07:23:09 17° 91° (E) 07:27:34 435.675
PRISM 06 Feb 07:25:09 07:29:16 76° 76° (ENE) 07:33:27 437.425
LilacSat-2 06 Feb 07:36:32 07:39:18 20° 290° (WNW) 07:42:04 437.200
CUTE-I 06 Feb 07:38:26 07:43:07 31° 292° (WNW) 07:47:48 437.470
PHONESAT 2.4 06 Feb 07:38:33 07:41:45 52° 204° (SSW) 07:44:55 2401.200-2431.200
CUTE 1.7 + AOD 2 06 Feb 07:46:17 07:49:20 19° 94° (E) 07:52:23 437.475
STRAND 1 06 Feb 07:49:05 07:52:59 22° 265° (W) 07:56:56 437.568
Cubesat XI-IV 06 Feb 07:51:08 07:55:24 25° 294° (WNW) 07:59:40 437.490
COMPASS 1 06 Feb 07:54:36 07:56:21 12° 92° (E) 07:58:06 437.405
CINEMA 3 06 Feb 07:54:50 07:57:44 18° 94° (E) 08:00:37 145.822/145.860
SEEDS 06 Feb 07:59:59 08:03:09 20° 94° (E) 08:06:18 437.485
GOMX 1 06 Feb 08:04:15 08:08:38 49° 287° (WNW) 08:12:44 467.674
DOVE 4 06 Feb 08:06:09 08:10:29 85° 102° (ESE) 08:14:38 437.250
Cosmos 2504 06 Feb 08:11:02 08:14:08 12° 301° (WNW) 08:17:16 435.465 / 435.565
O/OREOS (USA 219) 06 Feb 08:12:09 08:15:58 28° 103° (ESE) 08:19:49 437.305
BRITE-PL 06 Feb 08:15:54 08:19:28 21° 294° (WNW) 08:22:50 437.365/2234.400
AAUSAT CUBESAT 2 06 Feb 08:25:53 08:29:18 24° 95° (E) 08:32:41 437.432
CANX-2 06 Feb 08:29:37 08:33:55 71° 102° (ESE) 08:38:11 2200.000
CUBEBUG 2 06 Feb 08:30:03 08:32:40 16° 94° (E) 08:35:17 437.445
UWE-3 06 Feb 08:39:50 08:42:13 15° 93° (E) 08:44:38 435.000/436.395/437.385
UNISAT 6 06 Feb 08:42:05 08:42:50 10° 64° (ENE) 08:43:36 437.425
Oscar 11 06 Feb 08:57:04 09:00:28 22° 95° (E) 09:03:51 145.826/435.025
HO-68 06 Feb 09:04:17 09:11:30 78° 288° (WNW) 09:18:41 435.675
GONETS M04 06 Feb 09:14:13 09:22:40 60° 91° (E) 09:31:10
CUTE 1.7 + AOD 2 06 Feb 09:21:24 09:25:13 32° 289° (WNW) 09:29:02 437.475
ANTELSAT 06 Feb 09:23:47 09:27:36 31° 71° (ENE) 09:31:25 437.575/2403.000
COMPASS 1 06 Feb 09:28:06 09:32:10 48° 286° (WNW) 09:36:14 437.405
CINEMA 3 06 Feb 09:31:18 09:34:56 30° 289° (WNW) 09:38:34 145.822/145.860
TIGRISAT 06 Feb 09:31:56 09:35:56 36° 72° (ENE) 09:39:52 435.000
Cosmos 2499 06 Feb 09:31:56 09:39:21 34° 85° (E) 09:47:01 435.465 / 435.565
SEEDS 06 Feb 09:35:09 09:38:52 30° 289° (WNW) 09:42:34 437.485
ZACube-1 06 Feb 09:41:54 09:46:01 56° 100° (E) 09:50:12 437.345
POLYITAN 1 06 Feb 09:42:43 09:44:17 12° 65° (ENE) 09:45:54 437.675
QB50P2 06 Feb 09:43:20 09:45:09 13° 65° (ENE) 09:46:58 145.880/145.840
O/OREOS (USA 219) 06 Feb 09:51:40 09:55:19 24° 299° (WNW) 09:59:00 437.305
FUNcube-1 06 Feb 09:53:06 09:57:17 73° 100° (E) 10:01:32 145.935
AAUSAT CUBESAT 2 06 Feb 10:01:16 10:04:42 25° 290° (WNW) 10:08:09 437.432
CUBEBUG 2 06 Feb 10:05:36 10:09:24 35° 288° (WNW) 10:13:15 437.445
BUGSAT 1 06 Feb 10:09:00 10:10:13 11° 64° (ENE) 10:11:26 437.445
DELFI C3 06 Feb 10:11:32 10:15:36 89° 284° (WNW) 10:19:38 145.870
POPSAT HIP 1 06 Feb 10:12:16 10:15:45 25° 70° (ENE) 10:19:14 437.405
UNISAT 6 06 Feb 10:14:39 10:19:01 66° 259° (W) 10:23:18 437.425
UWE-3 06 Feb 10:14:57 10:18:51 39° 287° (WNW) 10:22:47 435.000/436.395/437.385
AO-85 06 Feb 10:17:15 10:20:55 19° 107° (ESE) 10:24:42 145.980
NANOSAT C BR1 06 Feb 10:19:21 10:23:01 29° 70° (ENE) 10:26:41 145.865
DUCHIFAT 1 06 Feb 10:22:34 10:26:17 30° 71° (ENE) 10:29:59 145.980
QB50P1 06 Feb 10:24:52 10:28:44 35° 72° (ENE) 10:32:36 145.935-145.965
Oscar 11 06 Feb 10:32:50 10:36:34 29° 290° (WNW) 10:40:17 145.826/435.025
HUMSAT D 06 Feb 10:35:39 10:39:47 67° 101° (E) 10:43:57 437.325/437.525
DX 1 06 Feb 10:38:59 10:40:59 13° 92° (E) 10:42:59 434.975-435.025
AIST 1 06 Feb 10:43:34 10:47:28 32° 91° (E) 10:51:25
HO-68 06 Feb 10:54:37 10:58:03 14° 306° (NW) 11:01:28 435.675
PCSat 06 Feb 10:59:28 11:04:06 30° 108° (ESE) 11:08:46 145.827
ANTELSAT 06 Feb 11:01:08 11:04:22 20° 265° (W) 11:07:33 437.575/2403.000
JUGNU 06 Feb 11:06:26 11:08:48 12° 176° (S) 11:11:09 437.505
TIGRISAT 06 Feb 11:09:51 11:12:43 17° 266° (W) 11:15:33 435.000
50 SAT 06 Feb 11:12:08 11:15:39 36° 98° (E) 11:19:10 437.505
GONETS M04 06 Feb 11:12:56 11:19:59 27° 290° (WNW) 11:27:07
POLYITAN 1 06 Feb 11:15:27 11:19:38 55° 260° (W) 11:23:48 437.675
QB50P2 06 Feb 11:16:21 11:20:30 52° 260° (W) 11:24:40 145.880/145.840
VELOX 1 06 Feb 11:17:29 11:21:31 33° 98° (E) 11:25:30 145.980
ZACube-1 06 Feb 11:20:28 11:21:51 11° 295° (WNW) 11:23:14 437.345
Cosmos 2499 06 Feb 11:23:50 11:32:05 50° 283° (WNW) 11:40:41 435.465 / 435.565
AISAT 06 Feb 11:33:11 11:37:31 54° 100° (E) 11:41:49 437.250
RS-15 06 Feb 11:34:44 11:45:06 49° 109° (ESE) 11:55:57 29.354- 29.394
JAS-2 06 Feb 11:37:55 11:42:27 17° 60° (ENE) 11:46:49 435.910
ESTCUBE 1 06 Feb 11:38:57 11:43:30 70° 102° (ESE) 11:48:00 437.505/2401.250
BUGSAT 1 06 Feb 11:40:55 11:45:05 60° 259° (W) 11:49:15 437.445
POPSAT HIP 1 06 Feb 11:47:59 11:51:28 24° 264° (W) 11:54:56 437.405
Oscar 19 06 Feb 11:50:51 11:54:26 19° 65° (ENE) 11:58:00 437.125/150
CUSAT 1 06 Feb 11:54:16 11:55:25 11° 57° (ENE) 11:56:30 437.405
NANOSAT C BR1 06 Feb 11:55:34 11:58:45 20° 265° (W) 12:01:56 145.865
AO-85 06 Feb 11:55:45 12:00:58 57° 304° (NW) 12:06:25 145.980
DUCHIFAT 1 06 Feb 11:58:54 12:02:00 20° 265° (W) 12:05:06 145.980
QB50P1 06 Feb 12:01:48 12:04:36 17° 266° (W) 12:07:25 145.935-145.965
CUBEBUG 1 06 Feb 12:04:33 12:08:56 81° 284° (WNW) 12:13:16 437.445
UKube-1 06 Feb 12:08:14 12:12:32 66° 286° (WNW) 12:16:48 .
DX 1 06 Feb 12:13:14 12:17:26 49° 287° (WNW) 12:21:37 434.975-435.025
AIST 1 06 Feb 12:22:02 12:25:08 19° 286° (WNW) 12:28:16
SPROUT 06 Feb 12:24:20 12:28:33 57° 101° (E) 12:32:43 437.525
SRMSAT 06 Feb 12:35:16 12:37:14 12° 172° (S) 12:39:11 437.500
PCSat 06 Feb 12:42:26 12:47:22 35° 305° (NW) 12:52:21 145.827
50 SAT 06 Feb 12:47:22 12:49:22 14° 293° (WNW) 12:51:22 437.505
TISAT 1 06 Feb 12:48:46 12:52:39 37° 98° (E) 12:56:30 437.305
ITAMSAT 1 06 Feb 12:52:04 12:54:40 14° 62° (ENE) 12:57:17 435.822/435.867
VELOX 1 06 Feb 12:54:32 12:57:45 20° 293° (WNW) 13:00:57 145.980
JUGNU 06 Feb 12:54:46 12:56:56 12° 186° (S) 12:59:05 437.505
ITUPSAT 1 06 Feb 13:09:56 13:10:38 10° 90° (E) 13:11:20 437.325
AISAT 06 Feb 13:11:28 13:13:31 13° 296° (WNW) 13:15:33 437.250
ESTCUBE 1 06 Feb 13:18:27 13:19:41 11° 297° (WNW) 13:20:55 437.505/2401.250
JAS-2 06 Feb 13:18:45 13:26:36 87° 76° (ENE) 13:33:56 435.910
BEESAT 06 Feb 13:19:19 13:21:52 14° 92° (E) 13:24:25 436.000
Gurwin Techsat 1B 06 Feb 13:27:41 13:32:52 59° 73° (ENE) 13:38:06 435.225
Oscar 19 06 Feb 13:28:18 13:33:20 49° 260° (W) 13:38:23 437.125/150
AO-7 06 Feb 13:31:07 13:36:49 21° 54° (NE) 13:42:29 29.400- 29.500
DANDE 06 Feb 13:32:52 13:40:04 51° 74° (ENE) 13:45:39 436.750
CUSAT 1 06 Feb 13:32:55 13:39:14 86° 81° (E) 13:43:55 437.405
AO-85 06 Feb 13:41:14 13:42:42 11° 323° (NW) 13:44:11 145.980
RS-15 06 Feb 13:46:47 13:57:28 49° 312° (NW) 14:08:47 29.354- 29.394
SO-50 06 Feb 13:50:50 13:54:10 18° 45° (NE) 13:57:25 436.795
SPROUT 06 Feb 14:02:30 14:04:00 12° 296° (WNW) 14:05:31 437.525
YUBILEINY 06 Feb 14:02:48 14:10:37 34° 72° (ENE) 14:18:21 435.215
Cosmos 2491 06 Feb 14:07:35 14:12:38 17° 78° (ENE) 14:17:42 435.465 / 435.565
SWISSCUBE 06 Feb 14:09:24 14:14:08 55° 101° (E) 14:18:49 437.505
SRMSAT 06 Feb 14:22:50 14:25:31 13° 182° (S) 14:28:12 437.500
TISAT 1 06 Feb 14:25:23 14:28:01 16° 293° (WNW) 14:30:38 437.305
ITAMSAT 1 06 Feb 14:28:21 14:33:30 69° 258° (WSW) 14:38:42 435.822/435.867
ITUPSAT 1 06 Feb 14:44:07 14:48:56 72° 286° (WNW) 14:53:43 437.325
HORYU 2 06 Feb 14:48:46 14:51:03 14° 64° (ENE) 14:53:20 437.375
M-CUBED/EXP-1 PRIME 06 Feb 14:49:03 14:52:25 30° 68° (ENE) 14:55:35 437.505
BEESAT 06 Feb 14:55:17 14:59:57 54° 287° (WNW) 15:04:37 436.000
AUBIESAT-1 06 Feb 15:02:13 15:05:41 36° 69° (ENE) 15:08:57 437.475
JAS-2 06 Feb 15:07:34 15:12:09 17° 270° (W) 15:16:36 435.910
Gurwin Techsat 1B 06 Feb 15:10:05 15:13:10 15° 268° (W) 15:16:15 435.225
DANDE 06 Feb 15:16:52 15:22:18 24° 278° (W) 15:26:51 436.750
AO-7 06 Feb 15:20:08 15:28:31 87° 252° (WSW) 15:36:57 29.400- 29.500
MOZHAYETS 4 06 Feb 15:26:33 15:29:32 17° 93° (E) 15:32:30
SO-50 06 Feb 15:30:21 15:35:03 58° 243° (WSW) 15:39:35 436.795
SWISSCUBE 06 Feb 15:48:43 15:51:26 15° 296° (WNW) 15:54:09 437.505
STARS 06 Feb 15:52:54 15:57:06 45° 100° (E) 16:01:17 437.465
YUBILEINY 06 Feb 15:59:13 16:07:37 50° 271° (W) 16:15:57 435.215
Cosmos 2491 06 Feb 15:59:31 16:08:15 85° 277° (W) 16:17:01 435.465 / 435.565
KKS-1 06 Feb 15:59:39 16:04:06 78° 285° (WNW) 16:08:30 437.445
Cosmos 2504 06 Feb 16:06:12 16:14:23 43° 75° (ENE) 16:22:02 435.465 / 435.565
RS-15 06 Feb 16:06:19 16:13:56 19° 343° (NNW) 16:21:50 29.354- 29.394
HORYU 2 06 Feb 16:22:52 16:27:10 50° 260° (W) 16:31:29 437.375
M-CUBED/EXP-1 PRIME 06 Feb 16:24:45 16:27:04 15° 259° (W) 16:29:18 437.505
AUBIESAT-1 06 Feb 16:38:35 16:40:19 13° 260° (W) 16:42:01 437.475
LilacSat-2 06 Feb 16:45:31 16:45:33 10° 65° (ENE) 16:45:34 437.200
ISS 06 Feb 16:51:01 16:54:12 56° 136° (SE) 16:57:23 145.825
BEESAT 3 06 Feb 16:59:33 17:01:08 12° 108° (ESE) 17:02:44 437.485
MOZHAYETS 4 06 Feb 17:02:29 17:06:52 43° 288° (WNW) 17:11:15
BEESAT 2 06 Feb 17:17:00 17:18:37 12° 108° (ESE) 17:20:14 435.950
AO-7 06 Feb 17:17:43 17:22:14 15° 269° (W) 17:26:49 29.400- 29.500
CUTE-I 06 Feb 17:18:20 17:23:18 41° 70° (ENE) 17:28:17 437.470
STARS 06 Feb 17:30:35 17:33:05 15° 295° (WNW) 17:35:36 437.465
Cubesat XI-IV 06 Feb 17:30:37 17:35:47 54° 72° (ENE) 17:40:59 437.490
CUBESAT XI-V 06 Feb 17:32:52 17:37:15 37° 98° (E) 17:41:36 437.345
GOMX 1 06 Feb 17:33:28 17:36:43 16° 65° (ENE) 17:39:54 467.674
BRITE-PL 06 Feb 17:44:14 17:49:29 40° 71° (ENE) 17:54:42 437.365/2234.400
HO-68 06 Feb 17:48:51 17:50:55 11° 52° (NE) 17:52:59 435.675
Cosmos 2504 06 Feb 17:59:51 18:07:34 38° 274° (W) 18:14:49 435.465 / 435.565
Cosmos 2491 06 Feb 18:01:32 18:06:24 16° 297° (WNW) 18:11:18 435.465 / 435.565
LilacSat-2 06 Feb 18:15:39 18:19:24 52° 260° (W) 18:23:08 437.200
STRAND 1 06 Feb 18:22:39 18:25:38 15° 92° (E) 18:28:38 437.568
O/OREOS (USA 219) 06 Feb 18:23:20 18:27:41 41° 65° (ENE) 18:32:01 437.305
RS-15 06 Feb 18:24:48 18:33:04 20° 21° (NNE) 18:41:29 29.354- 29.394
ISS 06 Feb 18:28:31 18:30:52 18° 333° (NNW) 18:33:14 145.825
BEESAT 3 06 Feb 18:34:35 18:38:26 49° 303° (WNW) 18:42:20 437.485
CUTE 1.7 + AOD 2 06 Feb 18:39:13 18:40:24 11° 64° (ENE) 18:41:36 437.475
AIST 2 06 Feb 18:44:12 18:45:10 11° 107° (ESE) 18:46:10 435.215
AO-85 06 Feb 18:51:17 18:53:39 13° 39° (NE) 18:55:57 145.980
SEEDS 06 Feb 18:51:50 18:53:15 11° 65° (ENE) 18:54:39 437.485
BEESAT 2 06 Feb 18:52:09 18:56:03 50° 303° (WNW) 18:59:59 435.950
CINEMA 3 06 Feb 18:54:59 18:57:54 17° 67° (ENE) 19:00:45 145.822/145.860
CUTE-I 06 Feb 18:59:23 19:03:28 22° 266° (W) 19:07:34 437.470
DOVE 4 06 Feb 19:08:33 19:13:44 70° 76° (ENE) 19:18:42 437.250
GOMX 1 06 Feb 19:08:50 19:14:16 64° 259° (W) 19:19:34 467.674
CUBESAT XI-V 06 Feb 19:10:55 19:14:21 20° 293° (WNW) 19:17:47 437.345
PRISM 06 Feb 19:10:55 19:12:33 12° 92° (E) 19:14:10 437.425
Cubesat XI-IV 06 Feb 19:12:48 19:16:09 17° 268° (W) 19:19:32 437.490
AAUSAT CUBESAT 2 06 Feb 19:15:57 19:17:51 13° 66° (ENE) 19:19:46 437.432
CANX-2 06 Feb 19:20:35 19:24:27 38° 73° (ENE) 19:28:22 2200.000
BRITE-PL 06 Feb 19:23:12 19:27:56 27° 266° (W) 19:32:42 437.365/2234.400
GONETS M04 06 Feb 19:27:24 19:34:33 27° 70° (ENE) 19:41:40
CUBEBUG 2 06 Feb 19:27:48 19:29:26 12° 65° (ENE) 19:31:04 437.445
HO-68 06 Feb 19:30:11 19:37:15 66° 71° (ENE) 19:44:22 435.675
UWE-3 06 Feb 19:37:13 19:37:57 10° 64° (ENE) 19:38:40 435.000/436.395/437.385
PCSat 06 Feb 19:49:21 19:53:07 19° 48° (NE) 19:56:51 145.827
Oscar 11 06 Feb 19:51:10 19:53:27 14° 66° (ENE) 19:55:44 145.826/435.025
STRAND 1 06 Feb 20:00:05 20:05:08 56° 287° (WNW) 20:10:10 437.568
O/OREOS (USA 219) 06 Feb 20:03:45 20:06:43 17° 260° (W) 20:09:41 437.305
CUTE 1.7 + AOD 2 06 Feb 20:11:36 20:15:44 58° 260° (W) 20:19:54 437.475
COMPASS 1 06 Feb 20:16:36 20:20:43 85° 77° (ENE) 20:24:54 437.405
AIST 2 06 Feb 20:19:01 20:23:08 61° 302° (WNW) 20:27:16 435.215
SEEDS 06 Feb 20:24:23 20:28:27 55° 260° (W) 20:32:34 437.485
AO-85 06 Feb 20:29:58 20:35:07 80° 58° (ENE) 20:39:47 145.980
CINEMA 3 06 Feb 20:30:09 20:34:43 46° 261° (W) 20:39:06 145.822/145.860
ZACube-1 06 Feb 20:36:03 20:39:53 34° 72° (ENE) 20:43:41 437.345
RS-15 06 Feb 20:37:30 20:49:20 53° 50° (NE) 21:01:18 29.354- 29.394
PRISM 06 Feb 20:44:06 20:48:08 48° 287° (WNW) 20:52:09 437.425
FUNcube-1 06 Feb 20:46:48 20:50:49 43° 73° (ENE) 20:54:47 145.935
AAUSAT CUBESAT 2 06 Feb 20:48:57 20:52:55 47° 261° (W) 20:56:56 437.432
DOVE 4 06 Feb 20:49:41 20:51:45 12° 269° (W) 20:53:48 437.250
DELFI C3 06 Feb 20:55:59 20:59:40 38° 73° (ENE) 21:03:22 145.870
CANX-2 06 Feb 20:57:57 21:00:27 15° 267° (W) 21:02:59 2200.000
CUBEBUG 2 06 Feb 21:01:16 21:05:37 57° 260° (W) 21:09:51 437.445
UWE-3 06 Feb 21:09:35 21:13:54 64° 259° (W) 21:18:07 435.000/436.395/437.385
Cosmos 2499 06 Feb 21:17:50 21:26:11 58° 78° (ENE) 21:33:52 435.465 / 435.565
HO-68 06 Feb 21:20:15 21:25:25 21° 267° (W) 21:30:39 435.675
GONETS M04 06 Feb 21:23:17 21:31:54 62° 268° (W) 21:40:32
Oscar 11 06 Feb 21:25:03 21:29:10 46° 261° (W) 21:33:19 145.826/435.025
HUMSAT D 06 Feb 21:25:20 21:29:03 34° 72° (ENE) 21:32:46 437.325/437.525
PCSat 06 Feb 21:31:36 21:36:59 66° 246° (WSW) 21:42:20 145.827
50 SAT 06 Feb 21:52:08 21:54:05 14° 67° (ENE) 21:56:04 437.505
UNISAT 6 06 Feb 22:08:28 22:12:11 27° 97° (E) 22:15:56 437.425
VELOX 1 06 Feb 22:13:15 22:16:53 25° 69° (ENE) 22:20:31 145.980
ZACube-1 06 Feb 22:13:24 22:16:15 17° 266° (W) 22:19:05 437.345
AO-85 06 Feb 22:14:15 22:14:42 10° 257° (WSW) 22:15:10 145.980
FUNcube-1 06 Feb 22:25:07 22:27:16 14° 267° (W) 22:29:22 145.935
AISAT 06 Feb 22:28:41 22:32:49 38° 72° (ENE) 22:36:58 437.250
AIST 1 06 Feb 22:29:29 22:33:52 89° 82° (E) 22:38:11
DELFI C3 06 Feb 22:32:46 22:34:44 13° 268° (W) 22:36:44 145.870
ESTCUBE 1 06 Feb 22:36:26 22:40:47 50° 73° (ENE) 22:45:10 437.505/2401.250
RS-15 06 Feb 22:50:20 23:01:43 48° 251° (WSW) 23:13:10 29.354- 29.394
ANTELSAT 06 Feb 22:53:06 22:57:26 88° 290° (WNW) 23:01:51 437.575/2403.000
CUBEBUG 1 06 Feb 22:58:13 23:02:36 65° 75° (ENE) 23:07:01 437.445
UKube-1 06 Feb 23:00:32 23:04:52 80° 76° (ENE) 23:09:13 .
TIGRISAT 06 Feb 23:01:15 23:05:33 75° 284° (WNW) 23:09:55 435.000
HUMSAT D 06 Feb 23:02:16 23:04:47 16° 267° (W) 23:07:20 437.325/437.525
POLYITAN 1 06 Feb 23:02:48 23:06:20 26° 96° (E) 23:09:50 437.675
QB50P2 06 Feb 23:03:35 23:07:11 27° 96° (E) 23:10:46 145.880/145.840
DX 1 06 Feb 23:06:20 23:10:43 74° 257° (WSW) 23:15:07 434.975-435.025
Cosmos 2499 06 Feb 23:12:01 23:18:37 27° 278° (W) 23:24:52 435.465 / 435.565
SPROUT 06 Feb 23:16:15 23:20:07 34° 72° (ENE) 23:24:01 437.525
ISS 06 Feb 23:20:29 23:23:29 33° 33° (NNE) 23:26:27 145.825
50 SAT 06 Feb 23:24:28 23:27:49 33° 262° (W) 23:31:13 437.505
BUGSAT 1 06 Feb 23:25:31 23:28:36 21° 95° (E) 23:31:40 437.445
POPSAT HIP 1 06 Feb 23:33:50 23:37:59 60° 101° (E) 23:42:07 437.405
TISAT 1 06 Feb 23:39:06 23:42:24 23° 69° (ENE) 23:45:42 437.305
NANOSAT C BR1 06 Feb 23:40:42 23:44:53 71° 102° (ESE) 23:49:03 145.865
DUCHIFAT 1 06 Feb 23:43:41 23:47:52 74° 102° (ESE) 23:52:02 145.980
UNISAT 6 06 Feb 23:45:22 23:48:47 23° 291° (WNW) 23:52:13 437.425
QB50P1 06 Feb 23:46:47 23:51:00 88° 109° (ESE) 23:55:11 145.935-145.965
VELOX 1 06 Feb 23:49:25 23:53:14 27° 264° (W) 23:57:03 145.980
AISAT 07 Feb 00:06:25 00:09:25 18° 266° (W) 00:12:26 437.250
ITUPSAT 1 07 Feb 00:15:14 00:16:22 11° 61° (ENE) 00:17:31 437.325
ESTCUBE 1 07 Feb 00:15:33 00:17:51 14° 268° (W) 00:20:10 437.505/2401.250
BEESAT 07 Feb 00:24:30 00:26:59 14° 63° (ENE) 00:29:28 436.000
POLYITAN 1 07 Feb 00:38:42 00:42:01 23° 291° (WNW) 00:45:20 437.675
CUBEBUG 1 07 Feb 00:39:05 00:39:16 10° 270° (W) 00:39:28 437.445
QB50P2 07 Feb 00:39:36 00:42:51 22° 291° (WNW) 00:46:05 145.880/145.840
CUSAT 1 07 Feb 00:51:31 00:56:36 19° 81° (E) 01:01:52 437.405
SPROUT 07 Feb 00:53:10 00:56:10 18° 266° (W) 00:59:11 437.525
ISS 07 Feb 00:57:12 00:59:48 22° 229° (SW) 01:02:23 145.825
DANDE 07 Feb 01:00:08 01:02:07 11° 75° (ENE) 01:04:10 436.750
BUGSAT 1 07 Feb 01:00:35 01:03:57 26° 290° (WNW) 01:07:17 437.445
POPSAT HIP 1 07 Feb 01:12:11 01:13:15 11° 296° (WNW) 01:14:18 437.405
SWISSCUBE 07 Feb 01:13:55 01:18:29 50° 73° (ENE) 01:23:07 437.505
TISAT 1 07 Feb 01:14:18 01:17:56 27° 263° (W) 01:21:33 437.305
Oscar 19 07 Feb 01:41:37 01:46:45 68° 102° (ESE) 01:51:49 437.125/150
Gurwin Techsat 1B 07 Feb 01:46:18 01:50:47 27° 96° (E) 01:55:14 435.225
ITUPSAT 1 07 Feb 01:48:46 01:53:31 78° 256° (WSW) 01:58:20 437.325
PHONESAT 2.4 07 Feb 01:52:28 01:55:21 29° 151° (SSE) 01:58:15 2401.200-2431.200
BEESAT 07 Feb 01:59:35 02:04:15 58° 259° (W) 02:08:58 436.000
Cosmos 2491 07 Feb 02:12:29 02:20:44 44° 76° (ENE) 02:28:58 435.465 / 435.565
JAS-2 07 Feb 02:16:54 02:22:42 88° 286° (WNW) 02:27:58 435.910
MOZHAYETS 4 07 Feb 02:27:45 02:29:54 13° 64° (ENE) 02:32:03
CUSAT 1 07 Feb 02:30:11 02:37:52 84° 278° (W) 02:46:06 437.405
DANDE 07 Feb 02:36:08 02:43:17 67° 94° (E) 02:51:37 436.750
ITAMSAT 1 07 Feb 02:43:09 02:48:14 49° 100° (E) 02:53:17 435.822/435.867
STARS 07 Feb 02:47:49 02:51:43 32° 70° (ENE) 02:55:38 437.465
SWISSCUBE 07 Feb 02:53:53 02:56:34 15° 268° (W) 02:59:16 437.505
BEESAT 3 07 Feb 02:53:55 02:57:45 47° 56° (ENE) 03:01:33 437.485
KKS-1 07 Feb 02:55:28 02:59:56 75° 76° (ENE) 03:04:24 437.445
YUBILEINY 07 Feb 03:01:13 03:09:10 41° 87° (E) 03:17:11 435.215
BEESAT 2 07 Feb 03:12:12 03:16:05 48° 56° (ENE) 03:19:55 435.950
Oscar 19 07 Feb 03:22:54 03:25:27 14° 298° (WNW) 03:28:00 437.125/150
AO-7 07 Feb 03:24:29 03:31:58 36° 98° (E) 03:39:22 29.400- 29.500
Gurwin Techsat 1B 07 Feb 03:25:58 03:30:43 34° 291° (WNW) 03:35:29 435.225
PHONESAT 2.4 07 Feb 03:29:13 03:32:30 71° 346° (NNW) 03:35:46 2401.200-2431.200
MOZHAYETS 4 07 Feb 04:02:05 04:06:33 57° 260° (W) 04:11:03
M-CUBED/EXP-1 PRIME 07 Feb 04:04:29 04:07:26 28° 103° (ESE) 04:10:31 437.505
JAS-2 07 Feb 04:05:24 04:06:42 11° 304° (NW) 04:07:58 435.910
Cosmos 2491 07 Feb 04:09:35 04:17:21 38° 274° (W) 04:25:08 435.465 / 435.565
HORYU 2 07 Feb 04:15:48 04:19:49 33° 98° (E) 04:23:51 437.375
CUSAT 1 07 Feb 04:16:20 04:21:18 18° 297° (WNW) 04:26:23 437.405
AUBIESAT-1 07 Feb 04:17:04 04:20:12 34° 104° (ESE) 04:23:30 437.475
DANDE 07 Feb 04:20:52 04:26:58 26° 294° (WNW) 04:33:43 436.750
ITAMSAT 1 07 Feb 04:23:39 04:27:19 20° 296° (WNW) 04:30:57 435.822/435.867
STARS 07 Feb 04:24:48 04:28:07 21° 265° (W) 04:31:26 437.465
BEESAT 3 07 Feb 04:33:25 04:35:04 12° 252° (WSW) 04:36:41 437.485
CUBESAT XI-V 07 Feb 04:34:23 04:38:26 30° 70° (ENE) 04:42:31 437.345
Cosmos 2504 07 Feb 04:41:18 04:48:51 38° 86° (E) 04:56:44 435.465 / 435.565
AIST 2 07 Feb 04:42:15 04:46:14 45° 56° (NE) 04:50:11 435.215
BEESAT 2 07 Feb 04:51:51 04:53:32 12° 252° (WSW) 04:55:12 435.950
YUBILEINY 07 Feb 04:57:46 05:05:52 41° 285° (WNW) 05:14:04 435.215
PHONESAT 2.4 07 Feb 05:06:48 05:10:00 48° 4° (N) 05:13:11 2401.200-2431.200
AO-7 07 Feb 05:16:57 05:24:50 48° 295° (WNW) 05:32:39 29.400- 29.500
STRAND 1 07 Feb 05:36:41 05:40:15 19° 65° (ENE) 05:43:49 437.568
CUTE-I 07 Feb 05:38:05 05:41:52 19° 93° (E) 05:45:39 437.470
M-CUBED/EXP-1 PRIME 07 Feb 05:40:03 05:41:54 14° 296° (WNW) 05:43:46 437.505
SO-50 07 Feb 05:41:58 05:46:49 73° 118° (ESE) 05:51:46 436.795
